Regional Weather Roundup
Issued by NWS Upton, NY

Home | Current Version | Previous Version | Text Only | Print | Product List | Glossary On
Versions: 1 2 3 4 5 6 7 8 9 10 11 12 13 14 15 16 17 18 19 20 21 22 23 24 25 26 27 28 29 30 31 32 33 34 35 36 37 38 39 40 41 42 43 44 45 46 47 48 49 50
000
ASUS41 KOKX 301108
RWROKX

REGIONAL WEATHER ROUNDUP
NATIONAL WEATHER SERVICE NEW YORK NY
700 AM EDT SUN APR 30 2017

NOTE: "FAIR" INDICATES FEW OR NO CLOUDS BELOW 12,000 FEET WITH NO
SIGNIFICANT WEATHER AND/OR OBSTRUCTIONS TO VISIBILITY.

NYZ071-072-176-178-NJZ106-104-301200-
NEW YORK CITY METRO AREA

CITY           SKY/WX    TMP DP  RH WIND       PRES   REMARKS
Central Park   CLOUDY    59  37  44 NE10G20   30.24R
Wall St Helipt CLOUDY    60  40  47 NE12G21   30.22R
Bronx Bot Gard   N/A     57  36  44 NE13      30.24R
LaGuardia APRT PTSUNNY   60  39  45 NE12      30.21R
Kennedy INTL   PTSUNNY   60  39  45 NE13      30.21R
Breezy Point     N/A     59 N/A N/A NE10        N/A
Newark/Liberty PTSUNNY   60  43  53 N14       30.21R
Teterboro      PTSUNNY   58  39  49 NE9       30.21R
$$

NYZ177-179-078>081-301200-
LONG ISLAND NEW YORK

CITY           SKY/WX    TMP DP  RH WIND       PRES   REMARKS
Jones Beach      N/A     57 N/A N/A NE12        N/A
Matinecock PT    N/A     55 N/A N/A NE10        N/A
Farmingdale    CLOUDY    58  39  49 NE8       30.21R
MacArthur/ISP  PTSUNNY   58  38  47 NE10      30.21R
Shirley        NOT AVBL
Mt Sinai Harb    N/A     52 N/A N/A N9          N/A
Westhampton    MOSUNNY   57  38  48 N6        30.24R
East Hampton   PTSUNNY   56  39  52 N5        30.22R
Montauk          N/A     55  42  61 N5        30.23
$$

NYZ052-065-067-301200-
HUDSON VALLEY

CITY           SKY/WX    TMP DP  RH WIND       PRES   REMARKS
White Plains   PTSUNNY   54  35  48 N6        30.22R
Larchmont Harb   N/A     55 N/A N/A N9          N/A
Croton O-T Hud   N/A     54 N/A N/A N2          N/A
Newburgh       SUNNY     50  37  62 NE12      30.24R
Montgomery     SUNNY     52  36  54 NE12      30.23R
Poughkeepsie   SUNNY     50  36  58 N9        30.23R
Albany         MOSUNNY   43  26  51 N9        30.31R
$$

NJZ001-105-106-008-010-013-015-019>022-104-301200-
NEW JERSEY

CITY           SKY/WX    TMP DP  RH WIND       PRES   REMARKS
Newark/Liberty PTSUNNY   60  43  53 N14       30.21R
Teterboro      PTSUNNY   58  39  49 NE9       30.21R
Caldwell       PTSUNNY   57  39  51 E9        30.23R
Somerville     PTSUNNY   60  45  57 VRB3      30.18R
Linden         PTSUNNY   61  41  48 NE10G16   30.21R
Perth Amboy      N/A     61 N/A N/A NE10        N/A
Sussex         CLOUDY    53  40  61 N7        30.23R
Andover          N/A     54  42  64 NE6       30.21R
Trenton        CLOUDY    61  47  59 NE8       30.17R
Millville      CLOUDY    68  59  73 E7        30.14R
Atlantic City  CLOUDY    67  56  67 E8        30.16R
Wrightstown    CLOUDY    61  54  77 NE8       30.15R
Toms River     MOSUNNY   60  54  80 NE6       30.19R
Belmar         MOSUNNY   62  47  57 NE12      30.20R
$$

PAZ047>061-062-071-301200-
EASTERN PENNSYLVANIA

CITY           SKY/WX    TMP DP  RH WIND       PRES   REMARKS
Philadelphia   CLOUDY    66  50  56 NE10      30.16R
Allentown      CLOUDY    58  43  57 E9        30.19R
Scranton       CLOUDY    52  40  63 NE5       30.18R
$$

CTZ002-004>006-009-010-012-RIZ004-006-007-MAZ004-011-015-301200-
SOUTHERN NEW ENGLAND
 IN CT

CITY           SKY/WX    TMP DP  RH WIND       PRES   REMARKS
Bradley INTL   MOSUNNY   51  34  52 N12       30.25R
Hartford       MOSUNNY   53  36  52 N12       30.24R
Danbury        MOSUNNY   51  37  58 N7        30.24R
Wtrbury/Oxford MOSUNNY   50  34  53 NE12      30.22R
Bridgeport     MOSUNNY   57  38  48 N9        30.22R
Meriden        SUNNY     55  37  50 N9        30.22R
New Haven      MOSUNNY   54  37  52 N7        30.22R
Chester          N/A     54  37  54 VRB6G13   30.22R
Groton         SUNNY     57  39  51 N8        30.22R
Wilimantic     SUNNY     54  39  57 N6        30.25R

 IN RI

CITY           SKY/WX    TMP DP  RH WIND       PRES   REMARKS
Providence     MOSUNNY   56  37  49 N14       30.23R
Block Island   SUNNY     56  42  59 N6        30.23R
Westerly       SUNNY     58  41  53 N5        30.23R
 IN MA

CITY           SKY/WX    TMP DP  RH WIND       PRES   REMARKS
Boston         MOSUNNY   50  29  44 NW13      30.27R
Worcester      SUNNY     47  28  47 N10       30.23R
Westfield      SUNNY     49  33  54 N7        30.26R
Provincetown   SUNNY     47  36  65 N15G22    30.26R
Nantucket      SUNNY     50  36  58 NE17      30.22R
$$

ANZ330-335-338-340-345-350-353-355-301200-
COASTAL MARINE OBSERVATIONS


STATION/POSITION TIME  SKY/WX   TEMP    WIND        PRES    VSBY  WAVE
                                AIR SEA DIR/SP/G                  HT/PER
                 (UTC)          (F)     (DEG/KT/KT) (MB)    (MI)  (FT/S)
NY HARB ENTRANCE 0950            55 50   40/  8/  8 1021.7          3/ 7
20 S FIRE ISLAND 1050            54 51   40/ 14/ 14 1021.8          3/ 7
GREAT SOUTH BAY  1030            59 61   30/ 10/ 10   N/A
23 SSW MONTAUK P 0950            52 48              1022.4          3/ 7
15 E BARNEGAT LI 1030               55                N/A           3/ 7
HUDSON CANYON    0950            54 49   20/  6/  6 1021.6          4/ 6
KINGS POINT      1048            57 52   60/  7/ 10 1023.0
EXECUTION ROCKS  NOT AVBL
CENTRAL LI SOUND 1030            51     340/  6/  8   N/A           1
EASTERN LI SOUND NOT AVBL
ROBBINS REEF     1048            60      50/ 17/ 20 1022.9
$$


>>>>>>>>>>>>>>>>>>>>>>>>>>>> KEY <<<<<<<<<<<<<<<<<<<<<<<<<<<
>                                                          <
>     SKY/WX - Sky Condition/Present Weather               <
>     TMP    - Temperature in Fahrenheit                   <
>     DP     - Dew Point in Fahrenheit                     <
>     RH     - Relative Humidity in Percent                <
>     WIND   - Direction (from) and Speed in MPH           <
>     PRES   - Mean Sea Level Pressure (inches of Hg)      <
>     WCI    - Wind Chill Index                            <
>     VSB    - VISIBILITY IN MILES                         <
>     HX     - HEAT INDEX                                  <
>     TC     - TEMPERATURE IN CELSIUS                      <
>     VRB    - VARIABLE WIND DIRECTION                     <
>                                                          <
>>>>>>>>>>>>>>>>>>>>>>>>>>>> KEY <<<<<<<<<<<<<<<<<<<<<<<<<<<



USA.gov is the U.S. government's official web portal to all federal, state and local government web resources and services.